Weather Roundup
Issued by NWS Chicago, IL

Home | Current Version | Previous Version | Text Only | Print | Product List | Glossary Off
Versions: 1 2 3 4 5 6 7 8 9 10 11 12 13 14 15 16 17 18 19 20 21 22 23 24 25 26 27 28 29 30 31 32 33 34 35 36 37 38 39 40 41 42 43 44 45 46 47 48 49 50

000
NZUS59 KLOT 221308
HRRLOT

CHICAGO AREA WEATHER ROUNDUP
NATIONAL WEATHER SERVICE CHICAGO/ROMEOVILLE IL
700 AM CST WED FEB 22 2017

NOTE: "FAIR" INDICATES FEW OR NO CLOUDS BELOW 12,000 FEET WITH NO
SIGNIFICANT WEATHER AND/OR OBSTRUCTIONS TO VISIBILITY.

* THESE STATIONS ARE NOT UNDER NWS QUALITY CONTROL. THEY ALSO MAY NOT
  REPORT WEATHER SUCH AS PRECIPITATION OR FOG.

ILZ005-006-012>014-019>023-221400-
NORTHEAST ILLINOIS

CITY           SKY/WX    TMP DP  RH WIND       PRES   REMARKS
OHARE          FOG       53  52  96 SW10      29.79F VSB 1/2
MIDWAY         FOG       54  52  93 S9        29.81F VSB 1/4
AURORA         FOG       54  53  97 S8        29.80F VSB 1/4
LANSING*       CLOUDY    51  51 100 SW6       29.84S FOG
JOLIET*        FOG       52  52 100 S3        29.83S VSB 1/4
WAUKEGAN       CLOUDY    53  53 100 SW10      29.77F FOG
DUPAGE AIRPORT FOG       52  51  97 SW9       29.79F VSB 1/2
WHEELING       CLOUDY    53  53 100 SW6       29.79F FOG
KANKAKEE*      FOG       47  46  97 CALM      29.85S VSB<1/4
MORRIS*        FOG       52  52  99 SW8       29.81F VSB 1/4
LEWIS AIRPORT* DRZL/FOG  51  51 100 SW6       29.82F VSB<1/4
NORTHERLY ISL    N/A     54  52  93 S7          N/A
$$

WIZ051-052-058>065-066-070>072-221400-
SOUTHEAST WISCONSIN

CITY           SKY/WX    TMP DP  RH WIND       PRES   REMARKS
MILWAUKEE      FOG       53  51  93 SW10      29.75F VSB 1/4
KENOSHA*       FOG       52  51  97 SW12      29.75F VSB 1/4
RACINE*        FOG       51  50  96 SW6       29.77F VSB 1/2
WAUKESHA       FOG       50  50 100 SW7       29.76F VSB 1
WEST BEND        N/A     46  46 100 SW5       29.72F FOG
$$

INZ001>003-010>013-019-020-221400-
NORTHWEST INDIANA

CITY           SKY/WX    TMP DP  RH WIND       PRES   REMARKS
GARY*          CLOUDY    55  52  88 S8        29.84F FOG
MICHIGAN CITY* NOT AVBL
RENSSELAER*    NOT AVBL
VALPARAISO     CLOUDY    52  51  97 S7        29.84F FOG
$$

LMZ740>746-221400-
SOUTHERN LAKE MICHIGAN

STATION/POSITION TIME  SKY/WX   TEMP WIND        PRES    VSBY
                                AIR  DIR/SP/G
                 (UTC)          (F)  (DEG/KT/KT) (MB)    (MI)
HARRISON CRIB    1240            55  200/ 15/ 17   N/A
BURNHAM HARBOR   1300            54  210/  8/ 11   N/A
CALUMET HARBOR   1242            53  200/  8/ 10 1009.2F
BURNS HARBOR     1205            54  180/  9/ 14 1010.8
MICHIGAN CITY    1240            53  170/  7/  9   N/A
$$

ABBREVIATIONS USED IN REMARKS
   TC - TEMPERATURE IN CELSIUS
  WCI - WIND CHILL INDEX
   HX - HEAT INDEX
  VSB - VISIBILITY
$$




USA.gov is the U.S. government's official web portal to all federal, state and local government web resources and services.